Simultaneous Nadir Overpasses (SNOs) Predictions

Prediction of SNOs between NOAA-20 and LANDSAT-8 Satellite Orbit:

Table of predicted SNOs for the next 14.0 days since TLE Epoch: 7/2/2022
Index Date (NOAA-20) Time (NOAA-20) Lat,Lon (NOAA-20) SZA (NOAA-20 ) Date (LANDSAT-8) Time (LANDSAT-8) Lat,Lon (LANDSAT-8) SZA (LANDSAT-8 ) Distance(km) Time Diff (sec)
1 07/03/2022 06:32:43 -70.24,-101.99 132.74 07/03/2022 06:33:54 -70.22,-101.79 132.77 7.82 71
2 07/03/2022 07:23:26 70.07, 65.57 47.10 07/03/2022 07:23:22 70.07, 65.63 47.09 2.63 4
3 07/03/2022 08:14:06 -69.88,-126.82 133.11 07/03/2022 08:12:53 -69.90,-126.97 133.08 6.37 73
4 07/05/2022 22:49:34 -70.10, 13.99 132.63 07/05/2022 22:50:25 -70.12, 13.94 132.63 2.40 51
5 07/05/2022 23:40:18 70.00,-178.54 47.26 07/05/2022 23:39:52 70.01,-178.56 47.28 2.10 26
6 07/06/2022 00:30:44 -69.05, -9.86 133.72 07/06/2022 00:29:37 -69.08, -12.19 133.60 92.78 67
7 07/08/2022 15:06:26 -70.08, 129.80 132.37 07/08/2022 15:06:54 -70.06, 129.75 132.39 2.73 28
8 07/08/2022 15:57:10 69.97, -62.73 47.53 07/08/2022 15:56:21 69.95, -62.76 47.51 2.56 49
9 07/11/2022 06:32:40 70.31, 77.89 48.22 07/11/2022 06:33:51 70.26, 78.29 48.14 15.81 71
10 07/11/2022 07:23:19 -70.05,-114.38 132.06 07/11/2022 07:23:23 -70.05,-114.38 132.06 0.08 4
11 07/11/2022 08:14:03 69.95, 53.08 47.84 07/11/2022 08:12:50 69.94, 53.10 47.84 1.80 73
12 07/13/2022 22:49:30 70.14,-166.06 48.41 07/13/2022 22:50:22 70.13,-166.01 48.40 1.73 52
13 07/13/2022 23:40:12 -70.03, 1.42 131.70 07/13/2022 23:39:52 -70.03, 1.48 131.70 2.09 20



Historial Predications of SNOs between NOAA-20 and LANDSAT-8
